Location: Shannon
(40.5500°S, 175.4167°E)
Time: 22:14:06
(UTC+00:00)

Spot 4 - Pass Details

Date: 17 November 2025
Orbit: 697 x 716 km, 98.3° (Epoch: 06 December)

Event Time Altitude Azimuth Distance (km) Brightness Sun altitude
Rises 12:40:35 0° 170° (S) 3,156 8.4 -29.7°
Reaches altitude 10° 12:42:53 10° 171° (S) 2,230 7.3 -29.6°
Enters shadow 12:46:49 56° 192° (SSW) 864 4.4 -29.5°
